Tracking 18951 objects as of 21-Jan-2018
HD Live streaming from Space Station
objects crossing your sky now

FENGYUN 1C DEB

Track FENGYUN 1C DEB now!
10-day predictions


NORAD ID: 30393
Int'l Code: 1999-025ADG
Perigee: 856.1 km
Apogee: 959.6 km
Inclination: 99.3 °
Period: 103.0 minutes
Semi major axis: 7278 km
RCS: 0.039 m2 (small)
Launch date: May 10, 1999
Source: People's Republic of China (PRC)
Launch site: Taiyaun Space Center, China (TSC)

Note: This is SATELLITE DEBRIS
aabbcc
Your satellite tracking list
Your tracking list is empty




NASA's NSSDC Master Catalog

Two Line Element Set (TLE):
1 30393U 99025ADG 18018.51783084 +.00000139 +00000-0 +12768-3 0  9997
2 30393 099.3060 357.1675 0071042 212.7637 268.2078 13.98007270560071
Source of the keplerian elements: AFSPC